Regional Weather Roundup
Issued by NWS

Home | Current Version | Previous Version | Graphics & Text | Print | Product List | Glossary On
Versions: 1 2 3 4 5 6 7 8 9 10 11 12 13 14 15 16 17 18 19 20 21 22 23 24 25 26 27 28 29 30 31 32 33 34 35 36 37 38 39 40 41 42 43 44 45 46 47 48 49 50
000
ASUS43 KLMK 300610
RWRKY
KENTUCKY REGIONAL WEATHER ROUNDUP
NATIONAL WEATHER SERVICE LOUISVILLE KY
100 AM EST FRI JAN 30 2015

NOTE "FAIR" INDICATES FEW OR NO CLOUDS BELOW 12,000 FEET
WITH NO SIGNIFICANT WEATHER AND/OR OBSTRUCTIONS TO VISIBILITY.

KYZ001>023-026-027-061>063-070>075-300700-
WESTERN AND SOUTH CENTRAL KENTUCKY

CITY           SKY/WX    TMP DP  RH WIND       PRES   REMARKS
PADUCAH        CLOUDY    38  29  70 N10       30.39R WCI  31
HENDERSON      CLOUDY    36  28  75 NW13      30.37S WCI  27
OWENSBORO      CLOUDY    37  31  79 NW15G22   30.35S WCI  28
HOPKINSVILLE   CLOUDY    37  30  75 N10G17    30.36S WCI  30
BOWLING GREEN  CLOUDY    37  32  82 NW6       30.34R WCI  32
GLASGOW        CLOUDY    36  31  82 NW7       30.30S WCI  30
$$

KYZ024-025-028>034-038-045-046-053-300700-
NORTH CENTRAL KENTUCKY

CITY           SKY/WX    TMP DP  RH WIND       PRES   REMARKS
LOUISVILLE/SDF DRIZZLE   37  28  70 NW14      30.28S WCI  28
LOUISVILLE/LOU CLOUDY    36  28  73 NW12      30.28S WCI  28
FORT KNOX      MIX PCPN  36  28  75 W8        30.27S WCI  29
$$

KYZ035>037-039>044-047>052-055>060-089>105-300700-
NORTHEAST KENTUCKY

CITY           SKY/WX    TMP DP  RH WIND       PRES   REMARKS
LEXINGTON      CLOUDY    33  30  88 W9        30.24R WCI  25
COVINGTON      CLOUDY    34  27  75 NW10G31   30.20S WCI  26
FRANKFORT      CLOUDY    33  29  85 W6        30.24R WCI  28
$$

KYZ054-064>069-076>088-106>120-300700-
SOUTHEAST KENTUCKY

CITY           SKY/WX    TMP DP  RH WIND       PRES   REMARKS
JACKSON        CLOUDY    32  28  85 NW9       30.18R WCI  24
LONDON         CLOUDY    35  27  72 NW9       30.22R WCI  28
SOMERSET       CLOUDY    34  28  80 NW7       30.27S WCI  28
MIDDLESBORO    DRIZZLE   36  32  84 NW10G21   30.20S WCI  29
MONTICELLO     CLOUDY    36  31  82 NW12      30.29S WCI  28
$$




USA.gov is the U.S. government's official web portal to all federal, state and local government web resources and services.